Location: Wien
(48.2082°N, 16.3738°E)
Time: 09:38:08
(UTC+01:00)

Courier 1B - All Passes

Search period start: 25 February 2024 00:00
Search period end: 06 March 2024 00:00
Orbit: 962 x 1209 km, 28.3° (Epoch: 24 February)

Date Brightness Start Highest point End Pass type
(mag) Time Alt. Az. Time Alt. Az. Time Alt. Az.
25 Feb - 01:32:52 10° SSW 01:35:08 12° S 01:37:24 10° SSE night (unlit)
25 Feb - 03:26:13 10° SSW 03:27:43 11° S 03:29:14 10° S visible
26 Feb - 00:40:02 10° S 00:41:42 11° S 00:43:22 10° SSE night (unlit)
26 Feb - 02:32:12 10° SSW 02:34:17 12° S 02:36:23 10° SSE night (unlit)
27 Feb - 01:38:30 10° SSW 01:40:50 12° S 01:43:11 10° SSE night (unlit)
28 Feb - 00:45:02 10° SSW 00:47:24 12° S 00:49:45 10° SSE night (unlit)
28 Feb - 23:51:46 10° SSW 23:53:58 12° S 23:56:09 10° SSE night (unlit)
29 Feb - 01:45:15 10° SSW 01:46:31 11° S 01:47:48 10° S night (unlit)
29 Feb - 22:58:47 10° S 23:00:31 11° S 23:02:15 10° SSE night (unlit)
01 Mar - 00:51:01 10° SSW 00:53:06 12° S 00:55:10 10° SSE night (unlit)
01 Mar - 22:06:46 10° S 22:07:05 10° SSE 22:07:23 10° SSE night (unlit)
01 Mar - 23:57:12 10° SSW 23:59:40 12° S 00:02:06 10° SSE night (unlit)
02 Mar - 23:03:36 10° SSW 23:06:13 12° S 23:08:48 10° SSE night (unlit)
03 Mar - 22:10:11 10° SSW 22:12:45 12° S 22:15:17 10° SSE night (unlit)
04 Mar - 00:03:35 10° SSW 00:05:21 11° S 00:07:05 10° S night (unlit)
04 Mar - 21:17:00 10° S 21:19:17 12° S 21:21:32 10° SSE visible
04 Mar - 23:09:22 10° SSW 23:11:54 12° S 23:14:25 10° SSE night (unlit)
05 Mar - 20:24:13 10° S 20:25:47 11° SSE 20:27:21 10° SSE visible
05 Mar - 22:15:28 10° SSW 22:18:27 13° S 22:21:21 10° SSE night (unlit)
